Location: Penton Mewsey
(51.2167°N, 1.5167°W)
Time: 23:54:07
(UTC+00:00)

Envisat - Pass Details

Date: 10 March 2021
Orbit: 764 x 766 km, 98.1° (Epoch: 22 April)

Event Time Altitude Azimuth Distance (km) Brightness Sun altitude
Rises 18:37:50 0° 227° (SW) 3,226 7.0 -6.3°
Reaches altitude 10° 18:42:34 10° 267° (W) 2,309 7.3 -7.1°
Maximum altitude 18:43:27 10° 278° (W) 2,282 7.2 -7.2°
Drops below altitude 10° 18:44:20 10° 288° (WNW) 2,312 7.0 -7.4°
Sets 18:49:06 0° 328° (NNW) 3,247 6.8 -8.1°
